Regional Weather Roundup
Issued by NWS

Home | Current Version | Previous Version | Graphics & Text | Print | Product List | Glossary Off
Versions: 1 2 3 4 5 6 7 8 9 10 11 12 13 14 15 16 17 18 19 20 21 22 23 24 25 26 27 28 29 30 31 32 33 34 35 36 37 38 39 40 41 42 43 44 45 46 47 48 49 50

000
ASUS43 KMPX 291710
RWRMN
WEATHER ROUNDUP FOR MINNESOTA
NATIONAL WEATHER SERVICE TWIN CITIES/CHANHASSEN MN
1200 PM CDT SAT APR 29 2017


NOTE: "FAIR" INDICATES FEW OR NO CLOUDS BELOW 12,000 FEET WITH NO
SIGNIFICANT WEATHER AND/OR OBSTRUCTIONS TO VISIBILITY. N/A MEANS
CURRENT SKY AND/OR WEATHER CONDITIONS ARE NOT AVAILABLE.

MNZ060>063-068>070-291800-
   Twin Cities Metro

CITY           SKY/WX    TMP DP  RH WIND       PRES   REMARKS
TWIN CITIES    CLOUDY    51  24  34 NE14      30.27F
ST PAUL        MOSUNNY   50  24  36 NE17G25   30.28F
CRYSTAL        SUNNY     50  22  33 E12G20    30.26F
BLAINE         PTSUNNY   52  23  32 NE15G26   30.27F
LAKEVILLE      MOSUNNY   48  27  43 NE16G25   30.26F
EDEN PRAIRIE   SUNNY     51  25  36 NE15G22   30.25F
SOUTH ST PAUL  MOSUNNY   50  23  35 NE7G16    30.26F
LAKE ELMO      FAIR      50  27  40 E13G18    30.27F
$$
MNZ001>005-007-008-013>017-022>024-027-028-291800-
   Northwest Minnesota

CITY           SKY/WX    TMP DP  RH WIND       PRES   REMARKS
BEMIDJI        SUNNY     49  19  30 E5        30.31F
HALLOCK        SUNNY     52  16  24 CALM      30.33F
ROSEAU         SUNNY     52  19  28 CALM      30.34F
WARROAD        SUNNY     48  27  43 CALM      30.34F
THIEF RVR FALL SUNNY     51  15  23 VRB3      30.33F
CROOKSTON      SUNNY     52  23  32 CALM      30.34F
FOSSTON        SUNNY     48  18  29 S8        30.33F
DETROIT LAKES  SUNNY     50  21  32 CALM      30.32F
MOORHEAD       SUNNY     52  19  28 S3        30.34S
PARK RAPIDS    SUNNY     50  19  29 CALM      30.31F
MAHNOMEN       FAIR      49  20  32 SW6       30.32F
$$
MNZ006-009>011-018-025>026-291800-
   North Central Minnesota

CITY           SKY/WX    TMP DP  RH WIND       PRES   REMARKS
BAUDETTE       SUNNY     51  14  22 CALM      30.32F
FLAG ISLAND    SUNNY     39  30  70 S5        30.34F
INTL FALLS     SUNNY     49  16  26 E7        30.33F
WASKISH        MOSUNNY   50  27  40 W9        30.33F
BIG FORK       SUNNY     52  18  25 E5        30.31F
LONGVILLE      SUNNY     48  19  32 CALM      30.30F
GRAND RAPIDS   SUNNY     48  18  30 MISG      30.31F
CRANE LAKE     SUNNY     46   9  21 NW5       30.36F
ORR            SUNNY     48  12  23 N5        30.30F
COOK           SUNNY     48  14  25 NE5       30.32F
WALKER         FAIR      47  22  37 SE5       30.31F
$$
MNZ012-019>021-037-291800-
   Northeast Minnesota

CITY           SKY/WX    TMP DP  RH WIND       PRES   REMARKS
DULUTH         SUNNY     46  22  38 VRB6G17   30.32F
ELY            SUNNY     45  10  24 NE6       30.33F
HIBBING        SUNNY     46  17  31 VRB3      30.31F
EVELETH        SUNNY     47   1  15 N10       30.32F
DULUTH HARBOR  SUNNY     43  30  61 NE9       30.36F
TWO HARBORS    SUNNY     48  28  46 E7        30.32F
SILVER BAY     SUNNY     45  25  45 E9        30.33F
GRAND MARAIS     N/A     39  29  67 SW3       30.36
G MARAIS ARPRT SUNNY     39  18  41 SE3       30.33F
$$
MNZ029>031-032-039>041-046>048-054>057-064-291800-
   West Central Minnesota

CITY           SKY/WX    TMP DP  RH WIND       PRES   REMARKS
FERGUS FALLS   SUNNY     48  25  40 S3        30.33R
WHEATON        SUNNY     50  19  29 NE3       30.35R
MORRIS         SUNNY     52  27  37 E8        30.31R
ALEXANDRIA     SUNNY     50  22  33 E10       30.32S
ELBOW LAKE     FAIR      49  24  37 CALM      30.33R
WADENA         SUNNY     48  25  40 S5        30.31R
GLENWOOD       SUNNY     50  23  34 NE10      30.31R
APPLETON       SUNNY     52  21  30 CALM      30.31R
BENSON         SUNNY     54  14  20 SE6       30.32R
ORTONVILLE     SUNNY     50  25  37 E7        30.32R
MADISON        CLOUDY    52  25  35 CALM      30.30R
WILLMAR        FAIR      48  27  43 NE10      30.31R
$$
MNZ033>034-036-042>043-049>051-058-059-291800-
   Central Minnesota

CITY           SKY/WX    TMP DP  RH WIND       PRES   REMARKS
ST CLOUD       SUNNY     49  23  36 NE13G22   30.29F
SAUK CENTRE    FAIR      47  24  41 E7        30.31R
PAYNESVILLE    MOSUNNY   49  22  35 NE9G17    30.30S
AITKIN         SUNNY     52  18  25 E6        30.29F
PINE RIVER     SUNNY     48  25  40 NW5       30.33F
BRAINERD       SUNNY     49  22  34 E9        30.30F
STAPLES        SUNNY     48  18  29 N8        30.30F
LONG PRAIRIE   FAIR      46  27  46 NE8       30.31R
LITTLE FALLS   SUNNY     46  21  36 N6        30.30F
LITCHFIELD     MOSUNNY   48  27  43 E13       30.29F
BUFFALO        CLOUDY    49  23  36 NE10G18   30.29F
MAPLE LAKE     MOSUNNY   51  27  39 NE12G17   30.30S
HUTCHINSON     SUNNY     49  27  42 NE16      30.29R
$$
MNZ037-044-045-052-053-291800-
   East Central Minnesota

CITY           SKY/WX    TMP DP  RH WIND       PRES   REMARKS
PRINCETON      MOSUNNY   52  21  30 N14G20    30.29F
MORA           SUNNY     50  23  34 E5        30.30F
CAMBRIDGE      SUNNY     50  30  46 N13       30.27F
RUSH CITY      SUNNY     49  26  39 NE7       30.29F
MOOSE LAKE     SUNNY     50  21  32 NE8       30.29F
HINCKLEY       FAIR      50  23  34 NE5G16    30.29F
CLOQUET        SUNNY     46  14  27 NE7       30.30F
MCGREGOR       SUNNY     48  21  34 E3        30.31F
$$
MNZ071>073-080-081-089-090-097-098-291800-
   Southwest Minnesota

CITY           SKY/WX    TMP DP  RH WIND       PRES   REMARKS
MONTEVIDEO     MOSUNNY   52  25  35 E9        30.30R
GRANITE FALLS  MOSUNNY   51  25  37 NE9G16    30.31R
CANBY          CLOUDY    51  23  32 E8        30.30S
MARSHALL       CLOUDY    48  23  37 E12G18    30.29R
REDWOOD FALLS  MOSUNNY   49  22  34 NE9       30.28R
OLIVIA         CLOUDY    50  27  40 E9        30.28R
PIPESTONE      CLOUDY    48  16  27 E15G23    30.23R
WINDOM         CLOUDY    46  23  39 NE15G24   30.24R
WORTHINGTON    PTSUNNY   44  29  55 NE18      30.22R
JACKSON        PTSUNNY   45  30  57 NE16      30.22S
TRACY          CLOUDY    49  27  43 E13G20    30.27R
SLAYTON        CLOUDY    46  26  46 NE16G23   30.26R
$$
MNZ065>067-074>077-082>085-091>093-291800-
   South Central Minnesota

CITY           SKY/WX    TMP DP  RH WIND       PRES   REMARKS
MANKATO        CLOUDY    47  26  44 NE15      30.26S
NEW ULM        CLOUDY    46  21  36 E9G17     30.25S
ST JAMES       CLOUDY    46  27  46 NE12      30.26R
FAIRMONT       CLOUDY    45  28  51 NE21      30.22F
GLENCOE        CLOUDY    50  29  44 NE8       30.27S
FARIBAULT      MOSUNNY   48  27  43 NE12G17   30.25S
OWATONNA       CLOUDY    46  27  46 NE15G24   30.23F
WASECA         CLOUDY    45  28  53 NE14G22   30.25S
ALBERT LEA     MOSUNNY   45  27  49 NE17      30.21S
$$
MNZ078>079-086>088-094>096-291800-
   Southeast Minnesota

CITY           SKY/WX    TMP DP  RH WIND       PRES   REMARKS
ROCHESTER      CLOUDY    44  27  51 E18       30.23F
RED WING       MOSUNNY   48  18  29 E14G23    30.24F
STANTON        MOSUNNY   49  26  41 NE14G20   30.24F
DODGE CENTER   PTSUNNY   45  28  53 NE13      30.22F
WINONA           N/A     46  28  49 E9G16     30.25F
AUSTIN         CLOUDY    45  28  53 NE15G23   30.20F
PRESTON        CLOUDY    43  26  52 NE15G21   30.21F
$$
ABBREVIATIONS USED IN REMARKS
   TC - TEMPERATURES IN CELSIUS
  WCI - WIND CHILL INDEX
   HX - HEAT INDEX
  VSB - VISIBILITY
$$



USA.gov is the U.S. government's official web portal to all federal, state and local government web resources and services.